Tracking 31027 objects as of 19-Jul-2025
HD Live streaming from Space Station
objects crossing your sky now

STARLINK-2184

Track STARLINK-2184 now!
10-day predictions
STARLINK-2184 is classified as:


NORAD ID: 47766
Int'l Code: 2021-017AW
Perigee: 246.1 km
Apogee: 249.8 km
Inclination: 53.0 °
Period: 89.3 minutes
Semi major axis: 6618 km
RCS: Unknown
Launch date: March 4, 2021
Source: United States (US)
Launch site: AIR FORCE EASTERN TEST RANGE (AFETR)
Your satellite tracking list
FLOCK 3P 17
Track 1 satellite(s)




NASA's NSSDC Master Catalog

Two Line Element Set (TLE):
1 47766U 21017AW  25199.41975567  .01076953  73894-3  97051-3 0  9991
2 47766  53.0383 161.6147 0002807 203.6767 299.9105 16.12209801242089
Source of the keplerian elements: AFSPC